Spokane, WA

8:17 PM PDT on October 22, 2019 (GMT -0700)
Spokane International

Weather History for KGEG - September, 2019

Change the Weather History Date:

Saturday, September 21, 2019

  Actual Average Record
Temperature  
Mean Temperature 57 °F 58 °F  
Max Temperature 69 °F 71 °F 92 °F (1967)
Min Temperature 44 °F 46 °F 30 °F (1895)
Degree Days  
Heating Degree Days 8 8  
Month to date heating degree days 80 101  
Since 1 July heating degree days 91 166  
Cooling Degree Days 0 1  
Month to date cooling degree days 40 34  
Year to date cooling degree days 523 445  
Growing Degree Days 6 (Base 50)    
Moisture  
Dew Point 44 °F    
Average Humidity 66    
Maximum Humidity 92    
Minimum Humidity 39    
Precipitation  
Precipitation 0.00 in 0.03 in 0.53 in (1959)
Month to date precipitation 0.95 0.46  
Year to date precipitation 10.07 10.57  
Snow  
Snow 0.00 in 0.00 in 0.00 in (2002)
Month to date snowfall 0.0 0.0  
Since 1 July snowfall 0.0 0.0  
Since 1 September snowfall 0.0 0.0  
Snow Depth 0.00 in    
Sea Level Pressure  
Sea Level Pressure 30.05 in    
Wind  
Wind Speed 7 mph (South)    
Max Wind Speed 15 mph    
Max Gust Speed 18 mph    
Visibility 10 miles    
Events Fog    
T = Trace of Precipitation, MM = Missing Value Source: NWS Daily Summary

Daily Weather History Graph

Daily Weather History Graph

Search for Another Location

Airport or City:

Astronomy

Sep. 21, 2019 Rise Set
Actual Time 6:35 AM PDT 6:50 PM PDT
Civil Twilight 6:04 AM PDT 7:20 PM PDT
Nautical Twilight 5:28 AM PDT 7:57 PM PDT
Astronomical Twilight 4:50 AM PDT 8:34 PM PDT
Moon 11:03 PM PDT (9/21) 2:13 PM PDT (9/21)
Length of Visible Light 13h 16m
Length of Day
12h 14m
Waning Gibbous, 53% of the Moon is Illuminated
Sep 21
Waning Gibbous
Sep 21
Last Quarter
Sep 28
New
Oct 5
First Quarter
Oct 13
Full

Hourly Weather History & Observations

Time (PDT) Temp. Windchill Dew Point Humidity Pressure Visibility Wind Dir Wind Speed Gust Speed Precip Events Conditions
12:53 AM 53.1 °F - 45.0 °F 74% 30.04 in 10.0 mi Calm Calm - N/A   Partly Cloudy
1:53 AM 50.0 °F - 45.0 °F 83% 30.06 in 10.0 mi SSE 4.6 mph - N/A   Partly Cloudy
2:53 AM 48.0 °F - 44.1 °F 86% 30.06 in 10.0 mi SSE 6.9 mph - N/A   Partly Cloudy
3:53 AM 46.0 °F 42.5 °F 43.0 °F 89% 30.06 in 10.0 mi SSE 6.9 mph - N/A   Mostly Cloudy
4:53 AM 45.0 °F 41.8 °F 42.1 °F 90% 30.07 in 10.0 mi South 5.8 mph - N/A   Mostly Cloudy
5:53 AM 44.1 °F 40.1 °F 42.1 °F 93% 30.08 in 10.0 mi SSE 6.9 mph - N/A   Scattered Clouds
6:30 AM 44.1 °F 40.8 °F 42.1 °F 93% 30.09 in 10.0 mi SSE 5.8 mph - N/A Fog Mostly Cloudy
6:53 AM 45.0 °F 41.2 °F 42.1 °F 90% 30.10 in 10.0 mi SSE 6.9 mph - N/A Fog Mostly Cloudy
7:53 AM 46.0 °F 43.1 °F 43.0 °F 89% 30.11 in 10.0 mi SSE 5.8 mph - N/A Fog Mostly Cloudy
8:53 AM 50.0 °F - 45.0 °F 83% 30.12 in 10.0 mi SSE 5.8 mph - N/A Fog Mostly Cloudy
9:53 AM 55.9 °F - 46.9 °F 72% 30.12 in 10.0 mi SW 6.9 mph - N/A Fog Mostly Cloudy
10:53 AM 57.9 °F - 46.9 °F 67% 30.10 in 10.0 mi SW 3.5 mph - N/A   Mostly Cloudy
11:53 AM 61.0 °F - 46.0 °F 58% 30.09 in 10.0 mi SSW 9.2 mph - N/A   Mostly Cloudy
12:53 PM 64.0 °F - 45.0 °F 50% 30.07 in 10.0 mi SW 6.9 mph - N/A   Mostly Cloudy
1:53 PM 66.0 °F - 44.1 °F 45% 30.06 in 10.0 mi SW 10.4 mph - N/A   Mostly Cloudy
2:53 PM 66.9 °F - 44.1 °F 44% 30.03 in 10.0 mi SW 10.4 mph - N/A   Mostly Cloudy
3:53 PM 68.0 °F - 43.0 °F 40% 30.02 in 10.0 mi SW 8.1 mph - N/A   Mostly Cloudy
4:53 PM 68.0 °F - 43.0 °F 40% 30.01 in 10.0 mi SW 6.9 mph - N/A   Mostly Cloudy
5:53 PM 68.0 °F - 43.0 °F 40% 30.00 in 10.0 mi SSW 8.1 mph - N/A   Scattered Clouds
6:53 PM 64.9 °F - 43.0 °F 45% 29.99 in 10.0 mi South 5.8 mph - N/A   Partly Cloudy
7:53 PM 62.1 °F - 42.1 °F 48% 30.00 in 10.0 mi South 6.9 mph - N/A   Clear
8:53 PM 61.0 °F - 42.1 °F 50% 29.99 in 10.0 mi South 5.8 mph - N/A   Clear
9:53 PM 59.0 °F - 42.1 °F 53% 29.98 in 10.0 mi South 6.9 mph - N/A   Clear
10:53 PM 57.0 °F - 42.1 °F 57% 29.97 in 10.0 mi South 5.8 mph - N/A   Clear
11:53 PM 55.0 °F - 41.0 °F 59% 29.97 in 10.0 mi SSE 8.1 mph - N/A   Clear